Regional Weather Roundup
Issued by NWS Midland/Odessa, TX

Skip options and go directly to product.
Home | Oldest Version | Next Version | Current Version | All | Text Only | Save Text | Print | Product List | Glossary On

Skip product version selection by date and time.   
411
ASUS44 KMAF 300301
RWRMAF
MIDLAND AREA WEATHER ROUNDUP
NATIONAL WEATHER SERVICE MIDLAND TX
1000 PM CDT THU SEP 29 2016

...IN SOUTHWEST TEXAS AND SOUTHEAST NEW MEXICO...

CITY           SKY/WX    TMP DP  RH WIND       PRES   REMARKS
ALPINE         CLEAR     61  55  81 CALM      30.40S
ANDREWS        FAIR      60  53  76 E3        30.33R
ARTESIA        CLEAR     64  52  63 SE5       30.31R
BIG SPRING     CLOUDY    65  50  57 E6        30.33R
CARLSBAD       CLEAR     61  53  75 S3        30.29R
DRYDEN           N/A     70  56  61 N6        30.23R
FORT STOCKTON  CLEAR     68  52  56 NE7       30.28R
GUAD PASS      CLEAR     63  43  48 NE25      30.39R
HOBBS          CLEAR     59  50  72 E8        30.35R
MARFA          CLEAR     61  53  75 NE9       30.38R
MIDLAND AIRPK  PTCLDY    70  48  45 E7        30.31R
MIDLAND INTL   PTCLDY    69  48  47 E8        30.30R
ODESSA         CLEAR     66  48  52 E8        30.32R
PECOS          CLEAR     69  53  57 E6        30.26R
PRESIDIO       FAIR      78  59  53 NE17      30.21R
SEMINOLE       CLEAR     62  53  72 CALM      30.34R
SNYDER           N/A     61  48  62 E6        30.32S
WINK           CLEAR     67  50  54 E7        30.27R
$$
...OTHER STATIONS IN TEXAS...

CITY           SKY/WX    TMP DP  RH WIND       PRES   REMARKS
ABILENE        CLEAR     62  49  62 E7        30.29S
AMARILLO       CLOUDY    59  45  59 SE10      30.34R
AUSTIN         CLEAR     63  54  72 N7        30.20R
BROWNSVILLE    CLEAR     78  72  81 N3        30.09R
CORPUS CHRISTI PTCLDY    81  64  56 NE12      30.12R
DALLAS FTW     CLEAR     65  51  60 N8        30.23R
DEL RIO        CLEAR     72  65  78 CALM      30.17R
EL PASO        MOCLDY    76  46  34 E10       30.23R
HOUSTON INT    CLEAR     68  56  65 N7        30.17R
LUBBOCK        MOCLDY    60  48  64 SE6       30.34R
SAN ANGELO     PTCLDY    63  54  72 NE7       30.27R
SAN ANTONIO    PTCLDY    71  54  54 NE7       30.20R
WACO           CLEAR     60  50  69 N3        30.23R
WICHITA FALLS  NOT AVBL
$$
...OTHER LOCATIONS IN NEW MEXICO...

CITY           SKY/WX    TMP DP  RH WIND       PRES   REMARKS
ALAMAGORDO     CLOUDY    73  41  31 CALM      30.27R
ALBUQUERQUE    CLOUDY    61  58  90 NE14      30.42F
CANNON AFB     NOT AVBL
CLOVIS         CLOUDY    57  46  67 S6        30.36R
HOLLOMAN AFB   CLOUDY    75  42  30 S14       30.24R
ROSWELL        CLOUDY    64  46  52 S7        30.31R
RUIDOSO        CLOUDY    57  41  54 SE9       30.49R
SANTA FE       CLOUDY    62  47  57 SW15G25   30.44R
TRUTH OR CONSE CLOUDY    76  42  29 SE9       30.29R
TUCUMCARI      CLEAR     66  45  46 S10       30.31R
$$

  • National Weather Service
  • Southern Region Headquarters
  • 819 Taylor Street, Room 10A06
  • Fort Worth, TX 76102
  • Page Author: NWS Fort Worth
  • Web Master: SR-SRH.Webmaster@noaa.gov
  •  
  • Page last modified: 30-Sep-2016 6:36 PM UTC
USA.gov is the U.S. government's official web portal to all federal, state and local government web resources and services.